Home   Weather   Sonneberg   Past weeks

Flag for Germany Past Weather in Sonneberg, Thuringia, Germany — Yesterday and Last 2 Weeks

Now
37 °F

Sunny.


Feels Like: 37 °F
Forecast: 32 / 45 °F
Wind: No wind

Location: Hof Airport

Current Time: Apr 26, 2017 at 9:35:00 pm

Latest Report: Apr 26, 2017 at 8:20 pm


Visibility: 10 mi

Pressure: 29.86 "Hg

Humidity: 81%

Dew Point: 32 °F

Location of SonnebergLocation

Past Weather in Sonneberg — Graph

°F

Sonneberg Temperature Yesterday

Maximum temperature yesterday: 50 °F (at 10:50 am)
Minimum temperature yesterday: 37 °F (at 6:20 am)
Average temperature yesterday: 45 °F

High & Low Weather Summary for the Past Weeks

 TemperatureHumidityPressure
High54 °F (Apr 12, 2:50 pm)93% (Apr 17, 1:20 pm)30.51 "Hg (Apr 17, 1:20 pm)
Low28 °F (Apr 19, 7:20 am)37% (Apr 21, 2:20 pm)29.65 "Hg (Apr 25, 6:20 am)
Average42 °F63%30.06 "Hg
* Reported Apr 11 7:20 pm — Apr 26 7:50 pm, Sonneberg, Weather by CustomWeather, © 2017

Note: Actual official high and low records may vary slightly from our data, if they occured in-between our weather recording intervals... More about our weather records

Advertising

Sonneberg Weather History for the Previous 24 Hours

Scroll right to see more
 ConditionsComfort  
Time TempWeatherWind HumidityBarometerVisibility
7:50 pm
Wed, Apr 26
39 °FSunny.3 mph70%29.86 "Hg10 mi
7:20 pm41 °FSunny.5 mph66%29.86 "Hg10 mi
6:50 pm41 °FBroken clouds.2 mph66%29.86 "HgN/A
6:20 pm41 °FBroken clouds.3 mph70%29.86 "HgN/A
5:50 pm41 °FPartly sunny.5 mph70%29.86 "HgN/A
5:20 pm41 °FBroken clouds.2 mph70%29.86 "HgN/A
4:50 pm41 °FBroken clouds.No wind66%29.86 "HgN/A
4:20 pm41 °FBroken clouds.6 mph70%29.83 "HgN/A
3:50 pm39 °FBroken clouds.5 mph75%29.86 "HgN/A
3:20 pm37 °FMostly cloudy.5 mph81%29.86 "HgN/A
2:50 pm37 °FLight rain. Mostly cloudy.6 mph81%29.86 "HgN/A
2:20 pm37 °FLight rain. Broken clouds.8 mph87%29.83 "HgN/A
1:50 pm36 °FLight rain. Partly sunny.9 mph87%29.86 "HgN/A
1:20 pm36 °FLight snow. Broken clouds.8 mph87%29.83 "Hg4 mi
12:50 pm34 °FLight snow. Broken clouds.8 mph93%29.83 "Hg3 mi
12:20 pm34 °FLight snow. Partly sunny.7 mph87%29.83 "Hg4 mi
11:50 am34 °FLight snow. Broken clouds.8 mph93%29.83 "Hg2 mi
11:20 am34 °FLight snow. Scattered clouds.9 mph87%29.83 "Hg1 mi
10:50 am32 °FLight snow. Partly sunny.9 mph93%29.83 "Hg2 mi
10:20 am32 °FLight snow. Low clouds.8 mph93%29.83 "Hg2 mi
9:50 am32 °FLight snow. Ice fog.8 mph93%29.80 "Hg1 mi
9:20 am32 °FLight snow. Ice fog.6 mph93%29.80 "Hg1 mi
8:50 am32 °FLight snow. Ice fog.5 mph93%29.80 "Hg1 mi
8:20 am32 °FLight snow. Ice fog.5 mph93%29.80 "Hg1 mi
7:50 am32 °FLight snow. Ice fog.6 mph93%29.80 "Hg1 mi
7:20 am32 °FLight snow. Ice fog.3 mph93%29.80 "Hg1 mi
6:50 am34 °FLight snow. Fog.3 mph87%29.77 "Hg1 mi
Weather by CustomWeather, © 2017

See weather overviewHow to use our weather pages